Location: Alberta Star Party
(51.6612°N, 112.9089°W)
Time: 17:04:35
(UTC-06:00)

Amateur Radio Satellites - All Passes

Search period start: 25 June 2016 16:34
Search period end: 26 June 2016 16:34
Location: Alberta Star Party, 51.6612°N, 112.9089°W

Satellite Date Start Highest point End Downlink Frequencies (MHz)
Time Altitude Azimuth
AIST 2 25 Jun 16:39:10 16:40:50 12° 250° (WSW) 16:42:29 435.215
ITAMSAT 1 25 Jun 16:49:30 16:53:18 20° 270° (W) 16:57:07 435.822/435.867
Cubesat XI-IV 25 Jun 16:51:04 16:53:51 14° 49° (NE) 16:56:38 437.490
MOZHAYETS 4 25 Jun 16:52:26 16:56:35 31° 94° (E) 17:00:42
SWISSCUBE 25 Jun 16:54:39 16:59:10 41° 294° (WNW) 17:03:39 437.505
BRITE-PL 25 Jun 16:55:50 16:58:30 15° 56° (NE) 17:01:06 437.365/2234.400
Cosmos 2504 25 Jun 17:02:16 17:09:56 41° 296° (WNW) 17:18:05 435.465 / 435.565
ISS 25 Jun 17:10:34 17:12:59 19° 216° (SW) 17:15:22 145.825
ITUPSAT 1 25 Jun 17:19:19 17:23:30 30° 298° (WNW) 17:27:40 437.325
BEESAT 25 Jun 17:20:38 17:24:45 29° 299° (WNW) 17:28:51 436.000
CUTE-I 25 Jun 17:24:43 17:28:54 24° 56° (ENE) 17:33:06 437.470
KKS-1 25 Jun 17:26:57 17:31:23 65° 103° (ESE) 17:35:48 437.445
SO-50 25 Jun 17:39:11 17:43:44 40° 122° (ESE) 17:48:16 436.795
YUBILEINY 25 Jun 17:43:26 17:47:25 13° 322° (NW) 17:51:25 435.215
LilacSat-2 25 Jun 17:44:10 17:46:56 20° 62° (ENE) 17:49:44 437.200
AO-7 25 Jun 17:44:10 17:51:07 29° 268° (W) 17:58:09 29.400- 29.500
GOMX 1 25 Jun 17:46:27 17:49:28 18° 59° (ENE) 17:52:23 467.674
GONETS M04 25 Jun 17:47:19 17:52:17 17° 70° (ENE) 17:57:16
CUSAT 1 25 Jun 17:48:53 17:49:54 11° 46° (NE) 17:50:52 437.405
NOAA 18 25 Jun 17:54:55 18:00:02 43° 63° (ENE) 18:05:13 137.9125
HORYU 2 25 Jun 17:56:00 18:00:13 44° 261° (W) 18:04:31 437.375
NOAA 15 25 Jun 18:02:54 18:08:04 56° 67° (ENE) 18:13:14 137.62
Cosmos 2499 25 Jun 18:06:54 18:11:05 15° 67° (ENE) 18:15:22 435.465 / 435.565
STARS 25 Jun 18:08:25 18:12:51 87° 105° (ESE) 18:17:16 437.465
RS-15 25 Jun 18:09:45 18:21:09 44° 2° (N) 18:32:50 29.354- 29.394
CUBESAT XI-V 25 Jun 18:10:55 18:14:48 25° 92° (E) 18:18:38 437.345
AIST 1 25 Jun 18:13:31 18:17:43 52° 95° (E) 18:21:54
Cubesat XI-IV 25 Jun 18:27:41 18:32:58 64° 70° (ENE) 18:38:18 437.490
MOZHAYETS 4 25 Jun 18:29:30 18:33:51 39° 294° (WNW) 18:38:10
BRITE-PL 25 Jun 18:31:20 18:36:25 81° 74° (ENE) 18:41:07 437.365/2234.400
CINEMA 3 25 Jun 18:48:30 18:49:34 11° 53° (NE) 18:50:37 145.822/145.860
HO-68 25 Jun 18:51:13 18:57:08 29° 51° (NE) 19:03:05 435.675
CANX-2 25 Jun 19:01:13 19:03:39 15° 56° (ENE) 19:06:04 2200.000
DOVE 4 25 Jun 19:02:23 19:06:23 38° 68° (ENE) 19:10:16 437.250
Cosmos 2504 25 Jun 19:02:52 19:06:27 13° 324° (NW) 19:10:06 435.465 / 435.565
CUTE-I 25 Jun 19:03:09 19:08:29 71° 257° (WSW) 19:13:53 437.470
KKS-1 25 Jun 19:04:21 19:07:33 20° 302° (WNW) 19:10:45 437.445
LilacSat-2 25 Jun 19:17:19 19:20:59 46° 261° (W) 19:24:41 437.200
COMPASS 1 25 Jun 19:17:40 19:18:38 11° 53° (NE) 19:19:37 437.405
SO-50 25 Jun 19:19:29 19:24:13 47° 322° (NW) 19:28:55 436.795
DANDE 25 Jun 19:19:50 19:25:23 34° 61° (ENE) 19:29:39 436.750
CUTE 1.7 + AOD 2 25 Jun 19:21:07 19:24:10 19° 60° (ENE) 19:27:14 437.475
GOMX 1 25 Jun 19:22:32 19:27:11 72° 258° (WSW) 19:31:33 467.674
CUSAT 1 25 Jun 19:28:47 19:33:24 73° 75° (ENE) 19:36:52 437.405
SEEDS 25 Jun 19:31:21 19:34:16 18° 59° (ENE) 19:37:13 437.485
M-CUBED/EXP-1 PRIME 25 Jun 19:32:26 19:33:16 11° 50° (NE) 19:34:05 437.505
NOAA 18 25 Jun 19:35:46 19:40:47 37° 263° (W) 19:45:53 137.9125
GONETS M04 25 Jun 19:38:49 19:47:24 68° 94° (E) 19:56:00
NOAA 15 25 Jun 19:43:43 19:48:10 27° 267° (W) 19:52:38 137.62
STARS 25 Jun 19:46:03 19:48:38 15° 305° (NW) 19:51:12 437.465
CUBESAT XI-V 25 Jun 19:47:56 19:52:25 47° 292° (WNW) 19:56:50 437.345
STRAND 1 25 Jun 19:48:48 19:52:36 20° 90° (E) 19:56:22 437.568
AIST 1 25 Jun 19:52:22 19:55:39 21° 295° (WNW) 19:58:55
Cosmos 2499 25 Jun 19:54:06 20:02:13 59° 91° (E) 20:10:49 435.465 / 435.565
UWE-3 25 Jun 20:01:13 20:03:23 14° 55° (NE) 20:05:35 435.000/436.395/437.385
Oscar 11 25 Jun 20:04:43 20:06:24 12° 53° (NE) 20:08:05 145.826/435.025
FUNcube-1 25 Jun 20:08:15 20:09:28 11° 52° (NE) 20:10:40 145.935
Cubesat XI-IV 25 Jun 20:09:16 20:13:30 24° 269° (W) 20:17:47 437.490
BRITE-PL 25 Jun 20:12:19 20:15:25 16° 271° (W) 20:18:23 437.365/2234.400
AAUSAT CUBESAT 2 25 Jun 20:19:04 20:22:42 29° 64° (ENE) 20:26:20 437.432
CINEMA 3 25 Jun 20:21:49 20:25:57 70° 72° (ENE) 20:30:07 145.822/145.860
RS-15 25 Jun 20:24:10 20:36:20 63° 34° (NE) 20:48:37 29.354- 29.394
AUBIESAT-1 25 Jun 20:27:56 20:30:51 30° 60° (ENE) 20:33:50 437.475
CANX-2 25 Jun 20:34:36 20:38:54 86° 253° (WSW) 20:43:15 2200.000
HO-68 25 Jun 20:37:02 20:44:13 82° 252° (WSW) 20:51:28 435.675
DOVE 4 25 Jun 20:40:32 20:44:13 27° 266° (W) 20:47:50 437.250
CUBEBUG 2 25 Jun 20:41:07 20:44:59 38° 67° (ENE) 20:48:58 437.445
CUTE-I 25 Jun 20:47:24 20:49:32 12° 276° (W) 20:51:42 437.470
COMPASS 1 25 Jun 20:49:13 20:53:23 65° 73° (ENE) 20:57:37 437.405
CUTE 1.7 + AOD 2 25 Jun 20:55:22 20:59:36 62° 258° (WSW) 21:03:54 437.475
DELFI C3 25 Jun 20:59:07 21:01:43 17° 59° (ENE) 21:04:19 145.870
SO-50 25 Jun 21:02:10 21:05:48 20° 345° (NNW) 21:09:23 436.795
DANDE 25 Jun 21:02:52 21:08:21 39° 271° (W) 21:12:30 436.750
M-CUBED/EXP-1 PRIME 25 Jun 21:04:03 21:07:19 86° 251° (WSW) 21:10:37 437.505
SEEDS 25 Jun 21:05:19 21:09:32 66° 258° (WSW) 21:13:49 437.485
PRISM 25 Jun 21:05:45 21:08:13 15° 90° (E) 21:10:41 437.425
CUSAT 1 25 Jun 21:13:11 21:14:20 11° 283° (WNW) 21:15:25 437.405
ZACube-1 25 Jun 21:21:28 21:25:30 46° 69° (ENE) 21:29:40 437.345
STRAND 1 25 Jun 21:27:09 21:32:19 71° 289° (WNW) 21:37:26 437.568
HUMSAT D 25 Jun 21:28:21 21:31:09 18° 58° (ENE) 21:33:57 437.325/437.525
UWE-3 25 Jun 21:35:01 21:39:12 89° 84° (E) 21:43:32 435.000/436.395/437.385
GONETS M04 25 Jun 21:37:03 21:44:54 36° 298° (WNW) 21:52:48
Oscar 11 25 Jun 21:37:27 21:41:46 72° 73° (ENE) 21:46:08 145.826/435.025
FUNcube-1 25 Jun 21:40:42 21:44:52 67° 72° (ENE) 21:49:10 145.935
Cosmos 2499 25 Jun 21:47:52 21:55:45 42° 295° (WNW) 22:04:05 435.465 / 435.565
YUBILEINY 25 Jun 21:50:00 21:52:58 12° 34° (NE) 21:55:58 435.215
AAUSAT CUBESAT 2 25 Jun 21:54:13 21:58:06 36° 263° (W) 22:02:01 437.432
CINEMA 3 25 Jun 22:01:22 22:03:39 14° 272° (W) 22:05:56 145.822/145.860
AUBIESAT-1 25 Jun 22:02:46 22:05:27 23° 259° (W) 22:08:10 437.475
ESTCUBE 1 25 Jun 22:05:19 22:06:47 11° 51° (NE) 22:08:14 437.505/2401.250
CANX-2 25 Jun 22:13:59 22:15:28 12° 275° (W) 22:16:57 2200.000
CUBEBUG 2 25 Jun 22:18:14 22:21:46 26° 267° (W) 22:25:22 437.445
AISAT 25 Jun 22:22:49 22:24:04 11° 51° (NE) 22:25:18 437.250
COMPASS 1 25 Jun 22:26:44 22:29:25 16° 271° (W) 22:32:06 437.405
HO-68 25 Jun 22:28:10 22:33:04 19° 274° (W) 22:38:01 435.675
TIGRISAT 25 Jun 22:29:39 22:30:29 10° 84° (E) 22:31:20 435.000
DELFI C3 25 Jun 22:32:07 22:36:08 67° 257° (WSW) 22:40:11 145.870
UNISAT 6 25 Jun 22:32:49 22:34:39 12° 85° (E) 22:36:28 437.425
RS-15 25 Jun 22:37:09 22:49:07 61° 242° (WSW) 23:01:04 29.354- 29.394
PRISM 25 Jun 22:39:54 22:44:00 65° 288° (WNW) 22:48:02 437.425
UKube-1 25 Jun 22:40:52 22:41:32 10° 51° (NE) 22:42:12 .
SO-50 25 Jun 22:44:32 22:47:56 19° 10° (N) 22:51:15 436.795
DX 1 25 Jun 22:52:36 22:55:10 16° 56° (NE) 22:57:44 434.975-435.025
ZACube-1 25 Jun 22:58:45 23:02:04 22° 269° (W) 23:05:28 437.345
HUMSAT D 25 Jun 23:02:09 23:06:18 68° 258° (WSW) 23:10:33 437.325/437.525
Cosmos 2504 25 Jun 23:02:21 23:04:51 11° 32° (NNE) 23:07:21 435.465 / 435.565
STRAND 1 25 Jun 23:07:48 23:10:39 15° 309° (NW) 23:13:28 437.568
AO-85 25 Jun 23:09:22 23:14:22 39° 121° (ESE) 23:19:11 145.980
ANTELSAT 25 Jun 23:11:13 23:15:06 26° 93° (E) 23:19:02 437.575/2403.000
UWE-3 25 Jun 23:14:49 23:16:23 12° 275° (W) 23:17:58 435.000/436.395/437.385
VELOX 1 25 Jun 23:15:40 23:19:24 28° 63° (ENE) 23:23:09 145.980
Oscar 11 25 Jun 23:15:48 23:18:25 16° 272° (W) 23:21:04 145.826/435.025
CUBEBUG 1 25 Jun 23:15:54 23:19:39 29° 64° (ENE) 23:23:23 437.445
FUNcube-1 25 Jun 23:19:02 23:21:38 16° 272° (W) 23:24:16 145.935
ESTCUBE 1 25 Jun 23:38:14 23:42:43 62° 71° (ENE) 23:47:14 437.505/2401.250
QB50P2 25 Jun 23:42:29 23:43:19 10° 85° (E) 23:44:09 145.880/145.840
GONETS M04 25 Jun 23:42:56 23:45:13 11° 327° (NNW) 23:47:29
POLYITAN 1 25 Jun 23:44:54 23:45:57 11° 85° (E) 23:46:59 437.675
YUBILEINY 25 Jun 23:45:03 23:53:10 38° 63° (ENE) 00:01:16 435.215
Cosmos 2499 25 Jun 23:47:58 23:51:57 14° 323° (NW) 23:56:00 435.465 / 435.565
DUCHIFAT 1 25 Jun 23:49:13 23:49:52 10° 85° (E) 23:50:32 145.980
AISAT 25 Jun 23:55:21 23:59:43 63° 71° (ENE) 00:04:05 437.250
50 SAT 26 Jun 00:01:06 00:04:49 72° 72° (ENE) 00:08:33 437.505
TIGRISAT 26 Jun 00:03:24 00:08:00 72° 103° (ESE) 00:12:39 435.000
UNISAT 6 26 Jun 00:07:27 00:12:05 81° 105° (ESE) 00:16:46 437.425
UKube-1 26 Jun 00:12:28 00:16:43 59° 70° (ENE) 00:20:59 .
PRISM 26 Jun 00:17:49 00:18:30 10° 308° (NW) 00:19:12 437.425
TISAT 1 26 Jun 00:17:59 00:20:35 16° 57° (ENE) 00:23:12 437.305
SPROUT 26 Jun 00:20:10 00:24:14 48° 69° (ENE) 00:28:21 437.525
SO-50 26 Jun 00:25:15 00:29:42 37° 34° (NNE) 00:34:00 436.795
DX 1 26 Jun 00:26:25 00:30:47 85° 257° (WSW) 00:35:10 434.975-435.025
ANTELSAT 26 Jun 00:47:36 00:52:00 46° 292° (WNW) 00:56:28 437.575/2403.000
AO-85 26 Jun 00:49:35 00:54:50 52° 320° (NW) 00:59:49 145.980
VELOX 1 26 Jun 00:51:32 00:55:44 42° 262° (W) 00:59:57 145.980
RS-15 26 Jun 00:51:43 00:58:54 18° 266° (W) 01:06:06 29.354- 29.394
CUBEBUG 1 26 Jun 00:51:44 00:55:50 39° 262° (W) 00:59:57 437.445
Cosmos 2504 26 Jun 00:53:45 01:01:45 35° 61° (ENE) 01:09:35 435.465 / 435.565
SWISSCUBE 26 Jun 00:54:07 00:56:12 13° 50° (NE) 00:58:17 437.505
BUGSAT 1 26 Jun 00:55:56 00:59:09 22° 93° (E) 01:02:24 437.445
JAS-2 26 Jun 00:58:16 01:02:03 17° 84° (E) 01:05:35 435.910
NANOSAT C BR1 26 Jun 00:59:59 01:04:08 51° 100° (E) 01:08:17 145.865
Cosmos 2491 26 Jun 01:01:00 01:08:50 38° 84° (E) 01:16:39 435.465 / 435.565
QB50P1 26 Jun 01:01:09 01:05:21 55° 101° (E) 01:09:32 145.935-145.965
POPSAT HIP 1 26 Jun 01:04:04 01:08:16 58° 101° (E) 01:12:29 437.405
QB50P2 26 Jun 01:15:34 01:19:51 80° 104° (ESE) 01:24:08 145.880/145.840
ESTCUBE 1 26 Jun 01:16:42 01:19:57 19° 270° (W) 01:23:13 437.505/2401.250
ITUPSAT 1 26 Jun 01:17:30 01:20:37 17° 54° (NE) 01:23:44 437.325
POLYITAN 1 26 Jun 01:18:11 01:22:28 82° 104° (ESE) 01:26:45 437.675
BEESAT 26 Jun 01:18:27 01:21:35 18° 55° (NE) 01:24:45 436.000
DUCHIFAT 1 26 Jun 01:22:02 01:26:18 80° 105° (ESE) 01:30:32 145.980
AISAT 26 Jun 01:33:35 01:36:37 18° 270° (W) 01:39:39 437.250
50 SAT 26 Jun 01:37:25 01:38:59 12° 272° (W) 01:40:33 437.505
TIGRISAT 26 Jun 01:40:59 01:44:14 19° 302° (WNW) 01:47:31 435.000
YUBILEINY 26 Jun 01:41:53 01:50:34 65° 267° (W) 01:59:16 435.215
UNISAT 6 26 Jun 01:45:16 01:48:16 17° 303° (WNW) 01:51:18 437.425
UKube-1 26 Jun 01:50:07 01:53:09 18° 269° (W) 01:56:12 .
TISAT 1 26 Jun 01:51:36 01:55:46 73° 257° (WSW) 01:59:57 437.305
SPROUT 26 Jun 01:57:07 02:00:27 22° 268° (W) 02:03:48 437.525
SO-50 26 Jun 02:05:47 02:10:23 52° 235° (SW) 02:14:49 436.795
DX 1 26 Jun 02:06:09 02:07:41 12° 274° (W) 02:09:12 434.975-435.025
MOZHAYETS 4 26 Jun 02:26:57 02:27:32 10° 49° (NE) 02:28:05
SWISSCUBE 26 Jun 02:28:23 02:33:08 65° 70° (ENE) 02:37:55 437.505
BUGSAT 1 26 Jun 02:30:52 02:34:44 44° 291° (WNW) 02:38:38 437.445
AO-85 26 Jun 02:32:21 02:36:22 22° 342° (NNW) 02:40:12 145.980
NANOSAT C BR1 26 Jun 02:36:20 02:39:36 22° 299° (WNW) 02:42:52 145.865
QB50P1 26 Jun 02:37:38 02:40:49 21° 300° (WNW) 02:43:59 145.935-145.965
POPSAT HIP 1 26 Jun 02:40:36 02:43:43 20° 300° (WNW) 02:46:49 437.405
JAS-2 26 Jun 02:42:06 02:48:11 86° 287° (WNW) 02:53:35 435.910
PCSat 26 Jun 02:45:36 02:49:00 17° 106° (ESE) 02:52:26 145.827
Cosmos 2504 26 Jun 02:47:05 02:55:59 74° 265° (W) 03:04:39 435.465 / 435.565
QB50P2 26 Jun 02:52:35 02:55:07 16° 303° (WNW) 02:57:41 145.880/145.840
Gurwin Techsat 1B 26 Jun 02:52:53 02:57:24 27° 93° (E) 03:01:52 435.225
ITUPSAT 1 26 Jun 02:53:00 02:57:49 88° 250° (WSW) 03:02:41 437.325
BEESAT 26 Jun 02:54:00 02:58:47 85° 253° (WSW) 03:03:38 436.000
POLYITAN 1 26 Jun 02:55:13 02:57:44 16° 303° (WNW) 03:00:16 437.675
KKS-1 26 Jun 02:55:21 02:58:23 18° 57° (ENE) 03:01:25 437.445
Cosmos 2491 26 Jun 02:56:38 03:05:19 62° 287° (WNW) 03:14:00 435.465 / 435.565
DUCHIFAT 1 26 Jun 02:58:57 03:01:28 16° 303° (WNW) 03:03:58 145.980
Oscar 19 26 Jun 02:59:26 03:04:32 60° 102° (ESE) 03:09:35 437.125/150
ITAMSAT 1 26 Jun 03:16:25 03:19:49 17° 88° (E) 03:23:12 435.822/435.867
STARS 26 Jun 03:35:05 03:38:28 22° 60° (ENE) 03:41:51 437.465
YUBILEINY 26 Jun 03:40:42 03:45:35 16° 291° (WNW) 03:50:29 435.215
AO-7 26 Jun 03:45:46 03:51:20 19° 85° (E) 03:56:50 29.400- 29.500
GONETS M04 26 Jun 03:46:33 03:50:44 14° 39° (NE) 03:54:55
Cosmos 2499 26 Jun 03:47:37 03:49:48 11° 31° (NNE) 03:51:58 435.465 / 435.565
MOZHAYETS 4 26 Jun 03:59:12 04:03:42 53° 70° (ENE) 04:08:15
SWISSCUBE 26 Jun 04:07:51 04:11:22 20° 270° (W) 04:14:55 437.505
BEESAT 3 26 Jun 04:11:12 04:14:40 31° 121° (ESE) 04:18:12 437.485
AO-85 26 Jun 04:15:04 04:18:32 18° 7° (N) 04:21:49 145.980
AIST 1 26 Jun 04:15:06 04:18:36 24° 67° (ENE) 04:22:05
O/OREOS (USA 219) 26 Jun 04:18:13 04:22:34 51° 112° (ESE) 04:26:56 437.305
PCSat 26 Jun 04:26:12 04:31:38 85° 127° (SE) 04:37:07 145.827
JAS-2 26 Jun 04:28:11 04:32:22 20° 311° (NW) 04:36:15 435.910
KKS-1 26 Jun 04:30:05 04:34:29 71° 256° (WSW) 04:38:56 437.445
Gurwin Techsat 1B 26 Jun 04:32:28 04:37:40 55° 292° (WNW) 04:42:52 435.225
ITUPSAT 1 26 Jun 04:33:56 04:36:24 14° 274° (W) 04:38:53 437.325
BEESAT 26 Jun 04:35:03 04:37:20 13° 274° (W) 04:39:38 436.000
Oscar 19 26 Jun 04:39:21 04:43:32 26° 301° (WNW) 04:47:42 437.125/150
Cosmos 2504 26 Jun 04:41:59 04:47:50 20° 288° (WNW) 04:53:39 435.465 / 435.565
BEESAT 2 26 Jun 04:43:05 04:46:45 36° 122° (ESE) 04:50:27 435.950
ITAMSAT 1 26 Jun 04:54:42 04:59:59 84° 287° (WNW) 05:05:14 435.822/435.867
Cosmos 2491 26 Jun 04:58:37 05:04:21 19° 313° (NW) 05:10:08 435.465 / 435.565
STARS 26 Jun 05:10:15 05:14:31 54° 259° (W) 05:18:50 437.465
CUBESAT XI-V 26 Jun 05:19:02 05:23:31 45° 68° (ENE) 05:28:01 437.345
STRAND 1 26 Jun 05:35:13 05:36:27 11° 46° (NE) 05:37:42 437.568
AO-7 26 Jun 05:37:11 05:45:37 73° 107° (ESE) 05:53:59 29.400- 29.500
MOZHAYETS 4 26 Jun 05:37:32 05:41:12 23° 269° (W) 05:44:53
Cosmos 2499 26 Jun 05:38:37 05:46:32 34° 60° (ENE) 05:54:08 435.465 / 435.565
HORYU 2 26 Jun 05:41:33 05:45:12 24° 93° (E) 05:48:51 437.375
GONETS M04 26 Jun 05:42:08 05:50:28 46° 67° (ENE) 05:58:46
BEESAT 3 26 Jun 05:48:31 05:52:17 42° 321° (NW) 05:56:05 437.485
AIST 1 26 Jun 05:52:22 05:56:24 41° 267° (W) 06:00:24
AO-85 26 Jun 05:55:59 06:00:25 33° 31° (NNE) 06:04:28 145.980
O/OREOS (USA 219) 26 Jun 05:58:24 06:02:14 27° 313° (NW) 06:06:06 437.305
PCSat 26 Jun 06:10:59 06:15:41 29° 328° (NNW) 06:20:23 145.827
NOAA 18 26 Jun 06:13:52 06:15:08 11° 83° (E) 06:16:23 137.9125
NOAA 15 26 Jun 06:14:08 06:16:35 13° 85° (E) 06:19:01 137.62
Gurwin Techsat 1B 26 Jun 06:14:24 06:16:34 13° 313° (NW) 06:18:43 435.225
BEESAT 2 26 Jun 06:20:52 06:24:36 38° 322° (NW) 06:28:22 435.950
BRITE-PL 26 Jun 06:31:55 06:34:14 14° 87° (E) 06:36:31 437.365/2234.400
ITAMSAT 1 26 Jun 06:35:20 06:38:44 18° 308° (NW) 06:42:09 435.822/435.867
AIST 2 26 Jun 06:39:21 06:43:08 36° 121° (ESE) 06:46:56 435.215
Cubesat XI-IV 26 Jun 06:40:24 06:43:51 17° 87° (E) 06:47:18 437.490
LilacSat-2 26 Jun 06:46:21 06:48:25 14° 88° (E) 06:50:28 437.200
CUSAT 1 26 Jun 06:55:58 06:59:43 15° 80° (E) 07:03:13 437.405
CUBESAT XI-V 26 Jun 06:57:05 07:01:06 27° 267° (W) 07:05:07 437.345
STRAND 1 26 Jun 07:09:33 07:14:30 49° 67° (ENE) 07:19:28 437.568
CUTE-I 26 Jun 07:14:50 07:19:37 31° 94° (E) 07:24:22 437.470
HORYU 2 26 Jun 07:17:41 07:22:02 49° 292° (WNW) 07:26:21 437.375
GOMX 1 26 Jun 07:19:06 07:22:11 20° 91° (E) 07:25:18 467.674
BEESAT 3 26 Jun 07:28:30 07:30:56 15° 343° (NNW) 07:33:22 437.485
AO-7 26 Jun 07:30:27 07:37:53 37° 310° (NW) 07:45:19 29.400- 29.500
Cosmos 2499 26 Jun 07:31:41 07:40:35 76° 264° (W) 07:49:03 435.465 / 435.565
AO-85 26 Jun 07:36:33 07:41:11 59° 234° (SW) 07:45:24 145.980
GONETS M04 26 Jun 07:39:10 07:47:30 53° 271° (W) 07:55:51
NOAA 18 26 Jun 07:51:25 07:56:56 61° 103° (ESE) 08:02:25 137.9125
NOAA 15 26 Jun 07:51:59 07:57:17 77° 105° (ESE) 08:02:31 137.62
PCSat 26 Jun 07:57:32 08:00:53 16° 354° (N) 08:04:14 145.827
PRISM 26 Jun 07:59:52 08:03:16 25° 62° (ENE) 08:06:39 437.425
HO-68 26 Jun 08:00:29 08:04:22 15° 83° (E) 08:08:13 435.675
BEESAT 2 26 Jun 08:01:08 08:03:29 15° 345° (NNW) 08:05:51 435.950
BRITE-PL 26 Jun 08:09:07 08:13:19 69° 288° (WNW) 08:17:26 437.365/2234.400
CINEMA 3 26 Jun 08:12:13 08:13:58 12° 86° (E) 08:15:45 145.822/145.860
CANX-2 26 Jun 08:16:03 08:17:48 12° 86° (E) 08:19:33 2200.000
AIST 2 26 Jun 08:17:40 08:21:36 40° 322° (NW) 08:25:33 435.215
Cubesat XI-IV 26 Jun 08:19:14 08:24:40 88° 289° (WNW) 08:30:04 437.490
LilacSat-2 26 Jun 08:19:18 08:23:10 67° 287° (WNW) 08:27:01 437.200
DANDE 26 Jun 08:30:43 08:38:15 38° 89° (E) 08:45:13 436.750
DOVE 4 26 Jun 08:32:24 08:36:31 48° 100° (E) 08:40:46 437.250
CUSAT 1 26 Jun 08:33:18 08:40:56 63° 98° (E) 08:47:19 437.405
CUTE 1.7 + AOD 2 26 Jun 08:35:46 08:38:34 17° 89° (E) 08:41:21 437.475
SEEDS 26 Jun 08:44:55 08:47:26 15° 88° (E) 08:49:57 437.485
STRAND 1 26 Jun 08:49:26 08:53:54 29° 266° (W) 08:58:24 437.568
CUTE-I 26 Jun 08:54:42 08:59:53 49° 294° (WNW) 09:05:02 437.470
GOMX 1 26 Jun 08:56:34 09:00:37 50° 289° (WNW) 09:04:43 467.674
BEESAT 3 26 Jun 09:08:19 09:10:10 13° 7° (N) 09:12:01 437.485
UWE-3 26 Jun 09:20:15 09:22:37 14° 87° (E) 09:25:00 435.000/436.395/437.385
AO-7 26 Jun 09:24:12 09:28:23 15° 335° (NNW) 09:32:34 29.400- 29.500
Cosmos 2499 26 Jun 09:26:17 09:32:12 21° 288° (WNW) 09:37:59 435.465 / 435.565
AAUSAT CUBESAT 2 26 Jun 09:31:05 09:34:33 24° 93° (E) 09:37:58 437.432
TIGRISAT 26 Jun 09:32:30 09:35:25 18° 57° (ENE) 09:38:23 435.000
NOAA 15 26 Jun 09:32:37 09:36:32 22° 305° (NW) 09:40:27 137.62
NOAA 18 26 Jun 09:32:37 09:37:16 28° 303° (WNW) 09:41:55 137.9125
PRISM 26 Jun 09:34:24 09:38:23 43° 261° (W) 09:42:23 437.425
UNISAT 6 26 Jun 09:36:24 09:39:35 20° 59° (ENE) 09:42:48 437.425
AUBIESAT-1 26 Jun 09:37:08 09:37:32 10° 94° (E) 09:37:55 437.475
GONETS M04 26 Jun 09:39:08 09:42:09 12° 294° (WNW) 09:45:11
BEESAT 2 26 Jun 09:40:51 09:42:53 13° 9° (N) 09:44:54 435.950
PCSat 26 Jun 09:42:22 09:46:22 20° 20° (NNE) 09:50:21 145.827
HO-68 26 Jun 09:46:18 09:53:30 67° 104° (ESE) 10:00:40 435.675
CINEMA 3 26 Jun 09:47:19 09:51:46 84° 104° (ESE) 09:56:25 145.822/145.860
CANX-2 26 Jun 09:49:59 09:54:20 89° 282° (WNW) 09:58:37 2200.000
BRITE-PL 26 Jun 09:50:11 09:51:01 10° 308° (NW) 09:51:50 437.365/2234.400
AIST 2 26 Jun 09:58:30 10:01:08 16° 345° (NNW) 10:03:45 435.215
Cubesat XI-IV 26 Jun 10:00:22 10:04:03 19° 307° (NW) 10:07:44 437.490
COMPASS 1 26 Jun 10:02:06 10:06:18 59° 101° (E) 10:10:26 437.405
CUBEBUG 2 26 Jun 10:02:14 10:06:35 43° 98° (E) 10:11:01 437.445
DELFI C3 26 Jun 10:06:18 10:07:43 12° 86° (E) 10:09:08 145.870
CUTE 1.7 + AOD 2 26 Jun 10:10:34 10:14:52 65° 288° (WNW) 10:19:06 437.475
DOVE 4 26 Jun 10:10:42 10:14:02 23° 298° (WNW) 10:17:26 437.250
M-CUBED/EXP-1 PRIME 26 Jun 10:11:43 10:14:56 26° 102° (ESE) 10:18:20 437.505
DANDE 26 Jun 10:12:28 10:20:51 65° 287° (WNW) 10:28:28 436.750
ANTELSAT 26 Jun 10:15:11 10:19:14 41° 67° (ENE) 10:23:24 437.575/2403.000
CUSAT 1 26 Jun 10:16:28 10:23:19 35° 294° (WNW) 10:29:07 437.405
SEEDS 26 Jun 10:19:23 10:23:39 71° 287° (WNW) 10:27:52 437.485
NANOSAT C BR1 26 Jun 10:24:34 10:26:12 12° 54° (NE) 10:27:51 145.865
QB50P1 26 Jun 10:25:42 10:27:37 13° 55° (NE) 10:29:33 145.935-145.965
POPSAT HIP 1 26 Jun 10:28:30 10:30:33 13° 55° (NE) 10:32:37 437.405
CUTE-I 26 Jun 10:37:06 10:38:45 11° 315° (NW) 10:40:25 437.470
QB50P2 26 Jun 10:39:16 10:42:02 17° 58° (ENE) 10:44:51 145.880/145.840
ZACube-1 26 Jun 10:40:04 10:44:28 49° 99° (E) 10:48:54 437.345
HUMSAT D 26 Jun 10:41:18 10:43:44 15° 88° (E) 10:46:09 437.325/437.525
POLYITAN 1 26 Jun 10:41:51 10:44:39 18° 58° (ENE) 10:47:29 437.675
DUCHIFAT 1 26 Jun 10:45:09 10:47:51 17° 58° (ENE) 10:50:34 145.980
BEESAT 3 26 Jun 10:45:48 10:49:08 25° 30° (NNE) 10:52:28 437.485
PHONESAT 2.4 26 Jun 10:55:02 10:55:55 11° 178° (S) 10:56:46 2401.200-2431.200
UWE-3 26 Jun 10:55:08 10:59:41 87° 284° (WNW) 11:04:19 435.000/436.395/437.385
Oscar 11 26 Jun 10:55:12 10:59:35 70° 102° (ESE) 11:03:56 145.826/435.025
FUNcube-1 26 Jun 10:59:04 11:03:35 69° 103° (ESE) 11:08:07 145.935
RS-15 26 Jun 11:02:27 11:07:42 14° 90° (E) 11:13:02 29.354- 29.394
Cosmos 2491 26 Jun 11:03:30 11:10:41 27° 56° (NE) 11:17:50 435.465 / 435.565
O/OREOS (USA 219) 26 Jun 11:06:06 11:07:07 11° 30° (NNE) 11:08:08 437.305
AAUSAT CUBESAT 2 26 Jun 11:06:14 11:10:12 41° 292° (WNW) 11:14:07 437.432
TIGRISAT 26 Jun 11:07:20 11:11:38 70° 257° (WSW) 11:16:03 435.000
AUBIESAT-1 26 Jun 11:08:45 11:12:30 84° 110° (ESE) 11:16:33 437.475
UNISAT 6 26 Jun 11:11:38 11:15:54 61° 259° (WSW) 11:20:18 437.425
JAS-2 26 Jun 11:15:28 11:20:52 23° 52° (NE) 11:25:55 435.910
AO-7 26 Jun 11:17:13 11:17:40 10° 3° (N) 11:18:06 29.400- 29.500
BEESAT 2 26 Jun 11:18:28 11:21:57 28° 32° (NNE) 11:25:27 435.950
PCSat 26 Jun 11:25:41 11:31:01 51° 44° (NE) 11:36:18 145.827
CINEMA 3 26 Jun 11:25:44 11:28:24 16° 302° (WNW) 11:31:09 145.822/145.860
CANX-2 26 Jun 11:27:15 11:29:33 14° 304° (NW) 11:31:51 2200.000
ISS 26 Jun 11:28:33 11:31:31 33° 152° (SSE) 11:34:31 145.825
HO-68 26 Jun 11:34:31 11:40:51 35° 305° (NW) 11:47:12 435.675
COMPASS 1 26 Jun 11:38:27 11:41:29 20° 300° (WNW) 11:44:30 437.405
AIST 2 26 Jun 11:38:54 11:41:12 14° 9° (N) 11:43:29 435.215
DELFI C3 26 Jun 11:39:08 11:43:11 85° 284° (WNW) 11:47:11 145.870
CUBEBUG 2 26 Jun 11:39:11 11:43:04 28° 296° (WNW) 11:47:01 437.445
M-CUBED/EXP-1 PRIME 26 Jun 11:46:11 11:49:33 35° 298° (WNW) 11:53:09 437.505
CUTE 1.7 + AOD 2 26 Jun 11:48:47 11:49:53 11° 307° (NW) 11:51:00 437.475
BUGSAT 1 26 Jun 11:50:41 11:54:15 31° 65° (ENE) 11:57:50 437.445
ANTELSAT 26 Jun 11:52:27 11:56:07 26° 267° (W) 11:59:52 437.575/2403.000
NANOSAT C BR1 26 Jun 11:57:03 12:01:13 77° 74° (ENE) 12:05:27 145.865
SEEDS 26 Jun 11:57:09 11:58:35 12° 307° (NW) 12:00:01 437.485
QB50P1 26 Jun 11:58:33 12:02:44 83° 74° (ENE) 12:06:59 145.935-145.965
DANDE 26 Jun 11:59:14 12:05:03 20° 308° (NW) 12:10:27 436.750
POPSAT HIP 1 26 Jun 12:01:31 12:05:42 87° 72° (ENE) 12:09:56 437.405
DX 1 26 Jun 12:11:17 12:12:41 11° 86° (E) 12:14:05 434.975-435.025
QB50P2 26 Jun 12:13:13 12:17:25 69° 259° (WSW) 12:21:38 145.880/145.840
HUMSAT D 26 Jun 12:15:33 12:19:53 76° 286° (WNW) 12:24:12 437.325/437.525
POLYITAN 1 26 Jun 12:15:51 12:20:02 67° 259° (W) 12:24:15 437.675
ZACube-1 26 Jun 12:16:51 12:20:32 25° 298° (WNW) 12:24:16 437.345
DUCHIFAT 1 26 Jun 12:18:57 12:23:06 70° 258° (WSW) 12:27:17 145.980
BEESAT 3 26 Jun 12:23:15 12:27:13 71° 231° (SW) 12:31:09 437.485
Oscar 11 26 Jun 12:32:18 12:35:15 18° 302° (WNW) 12:38:12 145.826/435.025
UWE-3 26 Jun 12:32:58 12:35:32 15° 304° (NW) 12:38:08 435.000/436.395/437.385
CUBEBUG 1 26 Jun 12:34:49 12:38:27 26° 93° (E) 12:42:04 437.445
FUNcube-1 26 Jun 12:36:13 12:39:23 19° 301° (WNW) 12:42:35 145.935
VELOX 1 26 Jun 12:36:15 12:39:52 24° 93° (E) 12:43:29 145.980
Gurwin Techsat 1B 26 Jun 12:42:24 12:45:21 15° 50° (NE) 12:48:19 435.225
O/OREOS (USA 219) 26 Jun 12:43:34 12:47:49 40° 53° (NE) 12:52:02 437.305
Oscar 19 26 Jun 12:43:40 12:47:55 27° 59° (ENE) 12:52:11 437.125/150
AUBIESAT-1 26 Jun 12:44:34 12:46:35 14° 308° (NW) 12:48:41 437.475
YUBILEINY 26 Jun 12:53:56 13:01:25 34° 81° (E) 13:08:57 435.215
BEESAT 2 26 Jun 12:56:08 13:00:06 60° 233° (SW) 13:04:02 435.950
JAS-2 26 Jun 12:57:30 13:05:06 78° 72° (ENE) 13:12:00 435.910
50 SAT 26 Jun 12:58:31 13:02:05 41° 99° (E) 13:05:35 437.505
Cosmos 2491 26 Jun 13:00:03 13:08:50 89° 253° (WSW) 13:17:34 435.465 / 435.565
ESTCUBE 1 26 Jun 13:01:55 13:06:26 64° 102° (ESE) 13:10:54 437.505/2401.250
AO-7 26 Jun 13:02:10 13:07:05 17° 30° (NNE) 13:11:59 29.400- 29.500
ISS 26 Jun 13:04:29 13:07:46 84° 171° (S) 13:11:03 145.825
ITAMSAT 1 26 Jun 13:05:28 13:05:49 10° 44° (NE) 13:06:09 435.822/435.867
RS-15 26 Jun 13:06:01 13:17:01 55° 116° (ESE) 13:28:34 29.354- 29.394
PCSat 26 Jun 13:09:21 13:14:19 37° 245° (WSW) 13:19:14 145.827
DELFI C3 26 Jun 13:15:44 13:17:24 12° 304° (NW) 13:19:04 145.870
AISAT 26 Jun 13:16:21 13:20:43 59° 102° (ESE) 13:25:03 437.250
AIST 2 26 Jun 13:17:16 13:20:57 29° 32° (NNE) 13:24:36 435.215
HO-68 26 Jun 13:24:21 13:26:34 12° 329° (NNW) 13:28:47 435.675
BUGSAT 1 26 Jun 13:26:06 13:29:39 30° 264° (W) 13:33:14 437.445
UKube-1 26 Jun 13:30:02 13:34:15 50° 100° (E) 13:38:26 .
TISAT 1 26 Jun 13:31:48 13:33:29 12° 87° (E) 13:35:12 437.305
NANOSAT C BR1 26 Jun 13:35:22 13:37:31 14° 272° (W) 13:39:41 145.865
SPROUT 26 Jun 13:36:22 13:40:28 43° 98° (E) 13:44:33 437.525
QB50P1 26 Jun 13:37:13 13:39:07 13° 273° (W) 13:41:02 145.935-145.965
POPSAT HIP 1 26 Jun 13:40:26 13:42:08 12° 274° (W) 13:43:50 437.405
Cosmos 2504 26 Jun 13:41:00 13:46:52 22° 74° (ENE) 13:52:57 435.465 / 435.565
DX 1 26 Jun 13:45:13 13:49:36 84° 108° (ESE) 13:53:56 434.975-435.025
HUMSAT D 26 Jun 13:52:57 13:54:48 13° 306° (NW) 13:56:39 437.325/437.525
BEESAT 3 26 Jun 14:03:42 14:04:09 10° 250° (WSW) 14:04:36 437.485
CUBEBUG 1 26 Jun 14:10:50 14:14:55 42° 292° (WNW) 14:18:58 437.445
VELOX 1 26 Jun 14:12:21 14:16:33 45° 292° (WNW) 14:20:44 145.980
Gurwin Techsat 1B 26 Jun 14:19:09 14:24:26 70° 71° (ENE) 14:29:45 435.225
Oscar 19 26 Jun 14:21:53 14:26:57 57° 259° (WSW) 14:32:03 437.125/150
O/OREOS (USA 219) 26 Jun 14:23:10 14:27:08 31° 253° (WSW) 14:31:05 437.305
SWISSCUBE 26 Jun 14:25:28 14:26:49 11° 84° (E) 14:28:11 437.505
50 SAT 26 Jun 14:32:42 14:35:33 21° 297° (WNW) 14:38:22 437.505
ITAMSAT 1 26 Jun 14:39:07 14:44:03 44° 65° (ENE) 14:49:01 435.822/435.867
ESTCUBE 1 26 Jun 14:39:31 14:42:50 20° 301° (WNW) 14:46:08 437.505/2401.250
ISS 26 Jun 14:40:57 14:44:14 79° 190° (S) 14:47:30 145.825
JAS-2 26 Jun 14:44:26 14:50:41 27° 270° (W) 14:56:32 435.910
YUBILEINY 26 Jun 14:48:56 14:57:37 69° 285° (WNW) 15:06:25 435.215
ITUPSAT 1 26 Jun 14:49:06 14:52:10 17° 88° (E) 14:55:12 437.325
BEESAT 26 Jun 14:49:37 14:52:45 17° 89° (E) 14:55:51 436.000
AO-7 26 Jun 14:50:07 14:57:53 45° 55° (NE) 15:05:41 29.400- 29.500
AISAT 26 Jun 14:53:34 14:56:51 21° 301° (WNW) 15:00:06 437.250
AIST 2 26 Jun 14:55:37 14:59:44 61° 233° (SW) 15:03:50 435.215
Cosmos 2491 26 Jun 14:58:02 15:04:31 24° 284° (WNW) 15:11:01 435.465 / 435.565
TISAT 1 26 Jun 15:05:32 15:09:46 87° 286° (WNW) 15:13:59 437.305
UKube-1 26 Jun 15:06:37 15:10:03 23° 299° (WNW) 15:13:27 .
SPROUT 26 Jun 15:12:42 15:16:14 25° 297° (WNW) 15:19:46 437.525
RS-15 26 Jun 15:17:47 15:29:24 67° 323° (NW) 15:41:40 29.354- 29.394
DX 1 26 Jun 15:22:39 15:25:13 16° 305° (NW) 15:27:48 434.975-435.025
Cosmos 2504 26 Jun 15:30:42 15:38:52 82° 98° (E) 15:47:40 435.465 / 435.565
SWISSCUBE 26 Jun 16:00:40 16:05:30 73° 103° (ESE) 16:10:17 437.505
Gurwin Techsat 1B 26 Jun 16:00:53 16:04:54 21° 270° (W) 16:08:57 435.225
KKS-1 26 Jun 16:16:38 16:19:17 15° 89° (E) 16:21:54 437.445
ISS 26 Jun 16:17:33 16:20:25 28° 210° (SSW) 16:23:17 145.825
ITAMSAT 1 26 Jun 16:18:58 16:23:39 33° 264° (W) 16:28:24 435.822/435.867
SO-50 26 Jun 16:26:36 16:29:19 15° 110° (ESE) 16:32:03 436.795
Cubesat XI-IV 26 Jun 16:32:18 16:33:25 11° 44° (NE) 16:34:33 437.490
